Time,TemperatureF,DewpointF,PressureIn,WindDirection,WindDirectionDegrees,WindSpeedMPH,WindSpeedGustMPH,Humidity,HourlyPrecipIn,Conditions,Clouds,dailyrainin,SolarRadiationWatts/m^2,SoftwareType,DateUTC
2013-05-08 00:04:00,59.9,57.9,29.93,NNE,30,1.0,2.0,93,0.00,,,0.00,0,Wunderground v.1.15,2013-05-08 05:04:00,
2013-05-08 00:09:00,59.8,57.8,29.93,NNE,30,1.0,2.0,93,0.00,,,0.00,0,Wunderground v.1.15,2013-05-08 05:09:00,
2013-05-08 00:14:00,59.7,57.7,29.92,NNE,30,2.0,3.0,93,0.00,,,0.01,0,Wunderground v.1.15,2013-05-08 05:14:00,
2013-05-08 00:19:00,59.7,57.7,29.93,NNE,30,3.0,3.0,93,0.00,,,0.01,0,Wunderground v.1.15,2013-05-08 05:19:00,
2013-05-08 00:24:00,59.7,57.7,29.92,NNE,30,3.0,4.0,93,0.00,,,0.01,0,Wunderground v.1.15,2013-05-08 05:24:00,
2013-05-08 00:29:00,59.8,57.5,29.92,NNE,30,3.0,5.0,92,0.00,,,0.01,0,Wunderground v.1.15,2013-05-08 05:29:00,
2013-05-08 00:34:00,60.0,57.4,29.92,NNE,30,4.0,4.0,91,0.00,,,0.01,0,Wunderground v.1.15,2013-05-08 05:34:00,
2013-05-08 00:39:00,60.1,57.5,29.92,NNE,30,3.0,4.0,91,0.00,,,0.01,0,Wunderground v.1.15,2013-05-08 05:39:00,
2013-05-08 00:44:00,60.2,56.9,29.92,ENE,65,3.0,5.0,89,0.00,,,0.01,0,Wunderground v.1.15,2013-05-08 05:44:00,
2013-05-08 00:49:00,60.5,56.6,29.92,ESE,105,4.0,7.0,87,0.00,,,0.01,0,Wunderground v.1.15,2013-05-08 05:49:00,
2013-05-08 00:54:00,60.9,56.0,29.92,ESE,116,4.0,6.0,84,0.00,,,0.01,0,Wunderground v.1.15,2013-05-08 05:54:00,
2013-05-08 01:00:00,61.1,55.9,29.92,SE,126,5.0,5.0,83,0.00,,,0.01,0,Wunderground v.1.15,2013-05-08 06:00:00,
2013-05-08 01:05:00,61.2,56.0,29.92,SE,126,5.0,7.0,83,0.00,,,0.01,0,Wunderground v.1.15,2013-05-08 06:05:00,
2013-05-08 01:11:00,61.2,56.0,29.91,SE,129,5.0,7.0,83,0.00,,,0.01,0,Wunderground v.1.15,2013-05-08 06:11:00,
2013-05-08 01:16:00,61.1,55.6,29.91,ESE,121,5.0,7.0,82,0.00,,,0.01,0,Wunderground v.1.15,2013-05-08 06:16:00,
2013-05-08 01:22:00,61.1,54.9,29.92,SE,135,4.0,5.0,80,0.00,,,0.01,0,Wunderground v.1.15,2013-05-08 06:22:00,
2013-05-08 01:28:00,61.2,54.6,29.91,SE,135,5.0,5.0,79,0.00,,,0.01,0,Wunderground v.1.15,2013-05-08 06:28:00,
2013-05-08 01:33:00,61.2,54.6,29.91,SE,137,5.0,5.0,79,0.00,,,0.01,0,Wunderground v.1.15,2013-05-08 06:33:00,
2013-05-08 01:39:00,61.0,54.4,29.91,SE,137,4.0,5.0,79,0.00,,,0.01,0,Wunderground v.1.15,2013-05-08 06:39:00,
2013-05-08 01:44:00,60.7,54.1,29.91,SE,139,4.0,5.0,79,0.00,,,0.01,0,Wunderground v.1.15,2013-05-08 06:44:00,
2013-05-08 01:50:00,60.4,54.2,29.91,SE,139,4.0,4.0,80,0.00,,,0.01,0,Wunderground v.1.15,2013-05-08 06:50:00,
2013-05-08 01:55:00,60.4,54.2,29.91,SE,145,4.0,5.0,80,0.00,,,0.01,0,Wunderground v.1.15,2013-05-08 06:55:00,
2013-05-08 02:00:00,60.4,54.2,29.91,SE,145,5.0,5.0,80,0.00,,,0.01,0,Wunderground v.1.15,2013-05-08 07:00:00,
2013-05-08 02:06:00,60.6,54.0,29.91,SSE,149,5.0,8.0,79,0.00,,,0.01,0,Wunderground v.1.15,2013-05-08 07:06:00,
2013-05-08 02:11:00,60.7,53.8,29.91,SSE,153,5.0,5.0,78,0.00,,,0.01,0,Wunderground v.1.15,2013-05-08 07:11:00,
2013-05-08 02:17:00,60.8,53.9,29.90,SSE,155,5.0,7.0,78,0.00,,,0.01,0,Wunderground v.1.15,2013-05-08 07:17:00,
2013-05-08 02:22:00,60.6,53.7,29.90,SSE,155,5.0,7.0,78,0.00,,,0.01,0,Wunderground v.1.15,2013-05-08 07:22:00,
2013-05-08 02:27:00,60.5,54.0,29.90,SSE,155,5.0,7.0,79,0.00,,,0.01,0,Wunderground v.1.15,2013-05-08 07:27:00,
2013-05-08 02:32:00,60.4,53.9,29.90,SSE,155,5.0,6.0,79,0.00,,,0.01,0,Wunderground v.1.15,2013-05-08 07:32:00,
2013-05-08 02:37:00,60.3,53.8,29.90,SSE,155,5.0,6.0,79,0.00,,,0.01,0,Wunderground v.1.15,2013-05-08 07:37:00,
2013-05-08 02:42:00,60.2,53.7,29.90,SSE,155,5.0,7.0,79,0.00,,,0.01,0,Wunderground v.1.15,2013-05-08 07:42:00,
2013-05-08 02:47:00,60.0,53.5,29.89,SSE,157,5.0,8.0,79,0.00,,,0.01,0,Wunderground v.1.15,2013-05-08 07:47:00,
2013-05-08 02:52:00,59.9,53.4,29.89,SSE,158,5.0,6.0,79,0.00,,,0.01,0,Wunderground v.1.15,2013-05-08 07:52:00,
2013-05-08 02:57:00,59.6,53.1,29.90,SSE,158,5.0,7.0,79,0.00,,,0.01,0,Wunderground v.1.15,2013-05-08 07:57:00,
2013-05-08 03:02:00,59.5,53.0,29.89,SSE,158,5.0,6.0,79,0.00,,,0.01,0,Wunderground v.1.15,2013-05-08 08:02:00,
2013-05-08 03:07:00,59.4,52.9,29.90,SSE,163,6.0,8.0,79,0.00,,,0.01,0,Wunderground v.1.15,2013-05-08 08:07:00,
2013-05-08 03:12:00,59.4,52.9,29.90,SSE,163,5.0,6.0,79,0.00,,,0.01,0,Wunderground v.1.15,2013-05-08 08:12:00,
2013-05-08 03:17:00,59.4,52.9,29.90,SSE,163,5.0,6.0,79,0.00,,,0.01,0,Wunderground v.1.15,2013-05-08 08:17:00,
2013-05-08 03:22:00,59.4,52.9,29.90,SSE,163,4.0,5.0,79,0.00,,,0.01,0,Wunderground v.1.15,2013-05-08 08:22:00,
2013-05-08 03:27:00,59.3,53.1,29.89,SSE,163,3.0,5.0,80,0.00,,,0.01,0,Wunderground v.1.15,2013-05-08 08:27:00,
2013-05-08 03:32:00,59.2,53.0,29.89,SSE,163,2.0,3.0,80,0.00,,,0.01,0,Wunderground v.1.15,2013-05-08 08:32:00,
2013-05-08 03:37:00,59.0,53.2,29.89,SSE,163,1.0,3.0,81,0.00,,,0.01,0,Wunderground v.1.15,2013-05-08 08:37:00,
2013-05-08 03:42:00,58.8,53.0,29.89,SSE,163,0.0,1.0,81,0.00,,,0.01,0,Wunderground v.1.15,2013-05-08 08:42:00,
2013-05-08 03:48:00,58.5,53.0,29.89,SSE,163,0.0,1.0,82,0.00,,,0.01,0,Wunderground v.1.15,2013-05-08 08:48:00,
2013-05-08 03:53:00,58.3,52.8,29.89,SSE,163,0.0,0.0,82,0.00,,,0.01,0,Wunderground v.1.15,2013-05-08 08:53:00,
2013-05-08 03:59:00,58.0,52.9,29.89,SSE,163,0.0,0.0,83,0.00,,,0.01,0,Wunderground v.1.15,2013-05-08 08:59:00,
2013-05-08 04:04:00,57.7,52.6,29.89,SSE,163,0.0,0.0,83,0.00,,,0.01,0,Wunderground v.1.15,2013-05-08 09:04:00,
2013-05-08 04:09:00,57.7,53.2,29.89,SSE,163,0.0,0.0,85,0.00,,,0.01,0,Wunderground v.1.15,2013-05-08 09:09:00,
2013-05-08 04:14:00,57.6,52.8,29.89,SSE,163,0.0,0.0,84,0.00,,,0.01,0,Wunderground v.1.15,2013-05-08 09:14:00,
2013-05-08 04:19:00,57.6,53.1,29.89,SSE,163,0.0,0.0,85,0.00,,,0.01,0,Wunderground v.1.15,2013-05-08 09:19:00,
2013-05-08 04:25:00,57.4,52.9,29.89,SSE,163,0.0,0.0,85,0.00,,,0.01,0,Wunderground v.1.15,2013-05-08 09:25:00,
2013-05-08 04:31:00,57.4,53.2,29.90,SSE,163,0.0,0.0,86,0.00,,,0.01,0,Wunderground v.1.15,2013-05-08 09:31:00,
2013-05-08 04:36:00,57.3,53.1,29.89,SSE,163,0.0,0.0,86,0.00,,,0.01,0,Wunderground v.1.15,2013-05-08 09:36:00,
2013-05-08 04:41:00,57.2,53.0,29.89,SSE,163,0.0,0.0,86,0.00,,,0.01,0,Wunderground v.1.15,2013-05-08 09:41:00,
2013-05-08 04:46:00,57.1,53.0,29.90,SSE,163,0.0,0.0,86,0.00,,,0.01,0,Wunderground v.1.15,2013-05-08 09:46:00,
2013-05-08 04:52:00,57.0,52.9,29.89,SSE,163,0.0,2.0,86,0.00,,,0.01,0,Wunderground v.1.15,2013-05-08 09:52:00,
2013-05-08 04:57:00,57.1,53.3,29.90,SSE,163,1.0,4.0,87,0.00,,,0.01,0,Wunderground v.1.15,2013-05-08 09:57:00,
2013-05-08 05:02:00,57.3,53.1,29.90,SSE,163,2.0,4.0,86,0.00,,,0.02,0,Wunderground v.1.15,2013-05-08 10:02:00,
2013-05-08 05:07:00,57.5,53.3,29.90,SSE,163,2.0,4.0,86,0.00,,,0.02,0,Wunderground v.1.15,2013-05-08 10:07:00,
2013-05-08 05:13:00,57.5,53.7,29.90,SSE,163,1.0,2.0,87,0.00,,,0.02,0,Wunderground v.1.15,2013-05-08 10:13:00,
2013-05-08 05:19:00,57.5,53.7,29.90,SSE,163,0.0,2.0,87,0.00,,,0.02,0,Wunderground v.1.15,2013-05-08 10:19:00,
2013-05-08 05:24:00,57.3,53.5,29.90,SSE,163,0.0,0.0,87,0.00,,,0.02,0,Wunderground v.1.15,2013-05-08 10:24:00,
2013-05-08 05:29:00,57.1,53.6,29.90,SSE,163,0.0,0.0,88,0.00,,,0.02,0,Wunderground v.1.15,2013-05-08 10:29:00,
2013-05-08 05:34:00,56.9,53.4,29.90,SSE,163,0.0,2.0,88,0.00,,,0.02,0,Wunderground v.1.15,2013-05-08 10:34:00,
2013-05-08 05:39:00,56.7,53.5,29.90,SSE,163,0.0,2.0,89,0.00,,,0.02,0,Wunderground v.1.15,2013-05-08 10:39:00,
2013-05-08 05:44:00,56.6,53.4,29.90,SSE,163,0.0,1.0,89,0.00,,,0.02,0,Wunderground v.1.15,2013-05-08 10:44:00,
2013-05-08 05:49:00,56.5,53.6,29.90,SSE,163,0.0,4.0,90,0.00,,,0.02,0,Wunderground v.1.15,2013-05-08 10:49:00,
2013-05-08 05:55:00,56.4,53.5,29.90,SSE,163,2.0,4.0,90,0.00,,,0.02,0,Wunderground v.1.15,2013-05-08 10:55:00,
2013-05-08 06:00:00,56.4,53.5,29.90,SSE,163,2.0,2.0,90,0.00,,,0.02,0,Wunderground v.1.15,2013-05-08 11:00:00,
2013-05-08 06:05:00,56.6,53.7,29.90,SSE,163,2.0,5.0,90,0.00,,,0.02,0,Wunderground v.1.15,2013-05-08 11:05:00,
2013-05-08 06:11:00,56.9,54.0,29.90,SSE,163,2.0,2.0,90,0.00,,,0.03,0,Wunderground v.1.15,2013-05-08 11:11:00,
2013-05-08 06:16:00,57.0,53.8,29.90,SSE,163,1.0,4.0,89,0.00,,,0.03,0,Wunderground v.1.15,2013-05-08 11:16:00,
2013-05-08 06:21:00,57.1,53.9,29.91,SSE,163,1.0,2.0,89,0.00,,,0.03,0,Wunderground v.1.15,2013-05-08 11:21:00,
2013-05-08 06:26:00,57.3,54.1,29.91,SSE,163,1.0,4.0,89,0.00,,,0.03,0,Wunderground v.1.15,2013-05-08 11:26:00,
2013-05-08 06:31:00,57.4,54.2,29.91,SSE,163,2.0,2.0,89,0.00,,,0.03,5,Wunderground v.1.15,2013-05-08 11:31:00,
2013-05-08 06:37:00,57.4,54.2,29.91,SSE,163,1.0,2.0,89,0.00,,,0.03,9,Wunderground v.1.15,2013-05-08 11:37:00,
2013-05-08 06:42:00,57.3,54.1,29.91,SSE,163,1.0,4.0,89,0.00,,,0.03,12,Wunderground v.1.15,2013-05-08 11:42:00,
2013-05-08 06:47:00,57.3,54.1,29.91,SSE,163,2.0,4.0,89,0.00,,,0.03,19,Wunderground v.1.15,2013-05-08 11:47:00,
2013-05-08 06:52:00,57.6,54.4,29.91,SSE,163,4.0,7.0,89,0.00,,,0.03,26,Wunderground v.1.15,2013-05-08 11:52:00,
2013-05-08 06:58:00,58.0,54.5,29.91,SSE,163,6.0,8.0,88,0.00,,,0.03,35,Wunderground v.1.15,2013-05-08 11:58:00,
2013-05-08 07:04:00,58.2,54.7,29.91,SSE,159,6.0,9.0,88,0.00,,,0.03,40,Wunderground v.1.15,2013-05-08 12:04:00,
2013-05-08 07:10:00,58.2,54.7,29.92,SE,134,6.0,7.0,88,0.00,,,0.03,42,Wunderground v.1.15,2013-05-08 12:10:00,
2013-05-08 07:16:00,58.3,54.8,29.91,SE,134,7.0,9.0,88,0.00,,,0.03,32,Wunderground v.1.15,2013-05-08 12:16:00,
2013-05-08 07:22:00,58.5,55.0,29.91,SE,132,7.0,7.0,88,0.00,,,0.03,26,Wunderground v.1.15,2013-05-08 12:22:00,
2013-05-08 07:27:00,58.5,54.6,29.91,South,176,7.0,13.0,87,0.00,,,0.03,23,Wunderground v.1.15,2013-05-08 12:27:00,
2013-05-08 07:32:00,58.6,54.7,29.92,SE,143,6.0,9.0,87,0.00,,,0.03,25,Wunderground v.1.15,2013-05-08 12:32:00,
2013-05-08 07:37:00,58.7,54.5,29.92,SSE,156,7.0,11.0,86,0.00,,,0.03,28,Wunderground v.1.15,2013-05-08 12:37:00,
2013-05-08 07:42:00,58.6,54.4,29.92,SSE,158,7.0,8.0,86,0.00,,,0.03,32,Wunderground v.1.15,2013-05-08 12:42:00,
2013-05-08 07:48:00,58.4,54.5,29.92,SSE,153,7.0,8.0,87,0.00,,,0.03,35,Wunderground v.1.15,2013-05-08 12:48:00,
2013-05-08 07:54:00,58.3,54.8,29.92,SE,145,6.0,8.0,88,0.00,,,0.03,44,Wunderground v.1.15,2013-05-08 12:54:00,
2013-05-08 07:59:00,58.2,54.7,29.92,SE,138,5.0,9.0,88,0.00,,,0.03,56,Wunderground v.1.15,2013-05-08 12:59:00,
2013-05-08 08:04:00,58.1,54.9,29.92,SE,138,5.0,9.0,89,0.00,,,0.03,63,Wunderground v.1.15,2013-05-08 13:04:00,
2013-05-08 08:09:00,58.1,54.9,29.92,SE,139,5.0,9.0,89,0.00,,,0.03,76,Wunderground v.1.15,2013-05-08 13:09:00,
2013-05-08 08:14:00,58.1,54.9,29.92,SE,136,6.0,7.0,89,0.00,,,0.03,88,Wunderground v.1.15,2013-05-08 13:14:00,
2013-05-08 08:20:00,58.1,55.2,29.92,SE,136,5.0,5.0,90,0.00,,,0.03,104,Wunderground v.1.15,2013-05-08 13:20:00,
2013-05-08 08:26:00,58.2,55.3,29.92,SE,138,4.0,8.0,90,0.00,,,0.03,105,Wunderground v.1.15,2013-05-08 13:26:00,
2013-05-08 08:32:00,58.2,55.3,29.92,SE,133,6.0,6.0,90,0.00,,,0.03,100,Wunderground v.1.15,2013-05-08 13:32:00,
2013-05-08 08:37:00,58.3,55.4,29.92,SE,136,5.0,6.0,90,0.00,,,0.03,118,Wunderground v.1.15,2013-05-08 13:37:00,
2013-05-08 08:42:00,58.4,55.5,29.92,SE,142,5.0,6.0,90,0.00,,,0.03,135,Wunderground v.1.15,2013-05-08 13:42:00,
2013-05-08 08:47:00,58.5,55.9,29.92,SE,142,5.0,6.0,91,0.00,,,0.03,142,Wunderground v.1.15,2013-05-08 13:47:00,
2013-05-08 08:52:00,58.7,56.1,29.92,SE,142,4.0,6.0,91,0.00,,,0.03,121,Wunderground v.1.15,2013-05-08 13:52:00,
2013-05-08 08:58:00,58.7,56.1,29.92,SSE,151,5.0,9.0,91,0.00,,,0.03,128,Wunderground v.1.15,2013-05-08 13:58:00,
2013-05-08 09:04:00,58.9,56.3,29.92,SE,145,6.0,10.0,91,0.00,,,0.03,123,Wunderground v.1.15,2013-05-08 14:04:00,
2013-05-08 09:09:00,58.9,56.0,29.92,SSE,150,6.0,10.0,90,0.00,,,0.03,111,Wunderground v.1.15,2013-05-08 14:09:00,
2013-05-08 09:14:00,59.1,56.5,29.92,SSE,150,5.0,6.0,91,0.00,,,0.03,118,Wunderground v.1.15,2013-05-08 14:14:00,
2013-05-08 09:19:00,59.2,56.6,29.92,SSE,152,4.0,7.0,91,0.00,,,0.03,130,Wunderground v.1.15,2013-05-08 14:19:00,
2013-05-08 09:25:00,59.4,56.8,29.92,SSE,152,4.0,7.0,91,0.00,,,0.03,141,Wunderground v.1.15,2013-05-08 14:25:00,
2013-05-08 09:31:00,60.2,57.9,29.92,SSE,152,3.0,5.0,92,0.00,,,0.03,408,Wunderground v.1.15,2013-05-08 14:31:00,
2013-05-08 09:37:00,61.3,58.7,29.92,SSE,152,3.0,5.0,91,0.00,,,0.03,520,Wunderground v.1.15,2013-05-08 14:37:00,
2013-05-08 09:42:00,61.8,58.2,29.91,SSE,163,5.0,6.0,88,0.00,,,0.03,316,Wunderground v.1.15,2013-05-08 14:42:00,
2013-05-08 09:47:00,62.3,58.7,29.91,SSE,167,6.0,9.0,88,0.00,,,0.03,459,Wunderground v.1.15,2013-05-08 14:47:00,
2013-05-08 09:52:00,62.7,58.1,29.91,South,173,6.0,10.0,85,0.00,,,0.03,334,Wunderground v.1.15,2013-05-08 14:52:00,
2013-05-08 09:57:00,63.2,59.3,29.90,South,178,5.0,10.0,87,0.00,,,0.03,513,Wunderground v.1.15,2013-05-08 14:57:00,
2013-05-08 10:02:00,63.4,58.5,29.91,South,184,5.0,9.0,84,0.00,,,0.03,396,Wunderground v.1.15,2013-05-08 15:02:00,
2013-05-08 10:08:00,63.1,57.9,29.92,SSW,200,6.0,9.0,83,0.00,,,0.03,236,Wunderground v.1.15,2013-05-08 15:08:00,
2013-05-08 10:14:00,62.8,57.9,29.92,South,186,7.0,9.0,84,0.00,,,0.03,149,Wunderground v.1.15,2013-05-08 15:14:00,
2013-05-08 10:20:00,62.6,57.7,29.92,SSW,207,6.0,6.0,84,0.00,,,0.03,172,Wunderground v.1.15,2013-05-08 15:20:00,
2013-05-08 10:26:00,62.9,58.3,29.91,SSW,207,4.0,6.0,85,0.00,,,0.03,239,Wunderground v.1.15,2013-05-08 15:26:00,
2013-05-08 10:31:00,63.0,58.1,29.92,SSW,194,5.0,6.0,84,0.00,,,0.03,186,Wunderground v.1.15,2013-05-08 15:31:00,
2013-05-08 10:36:00,62.9,58.0,29.92,SSW,208,6.0,7.0,84,0.00,,,0.03,146,Wunderground v.1.15,2013-05-08 15:36:00,
2013-05-08 10:42:00,62.9,58.0,29.92,SSW,200,5.0,8.0,84,0.00,,,0.03,156,Wunderground v.1.15,2013-05-08 15:42:00,
2013-05-08 10:48:00,62.9,58.0,29.92,SSW,198,6.0,8.0,84,0.00,,,0.03,218,Wunderground v.1.15,2013-05-08 15:48:00,
2013-05-08 10:53:00,63.0,58.4,29.92,SSW,200,5.0,7.0,85,0.00,,,0.03,227,Wunderground v.1.15,2013-05-08 15:53:00,
2013-05-08 10:59:00,63.1,57.9,29.92,South,175,6.0,12.0,83,0.00,,,0.03,301,Wunderground v.1.15,2013-05-08 15:59:00,
2013-05-08 11:05:00,63.3,58.0,29.92,SSW,202,6.0,7.0,83,0.00,,,0.03,232,Wunderground v.1.15,2013-05-08 16:05:00,
2013-05-08 11:11:00,63.3,58.4,29.93,SSW,207,5.0,6.0,84,0.00,,,0.03,153,Wunderground v.1.15,2013-05-08 16:11:00,
2013-05-08 11:17:00,63.3,58.4,29.93,SW,227,5.0,6.0,84,0.00,,,0.03,279,Wunderground v.1.15,2013-05-08 16:17:00,
2013-05-08 11:22:00,63.4,58.1,29.93,SW,227,5.0,6.0,83,0.00,,,0.03,248,Wunderground v.1.15,2013-05-08 16:22:00,
2013-05-08 11:27:00,63.7,58.8,29.93,SW,230,5.0,6.0,84,0.00,,,0.03,529,Wunderground v.1.15,2013-05-08 16:27:00,
2013-05-08 11:32:00,64.3,58.7,29.93,SW,218,6.0,9.0,82,0.00,,,0.03,338,Wunderground v.1.15,2013-05-08 16:32:00,
2013-05-08 11:37:00,64.1,58.5,29.93,WSW,247,6.0,9.0,82,0.00,,,0.03,230,Wunderground v.1.15,2013-05-08 16:37:00,
2013-05-08 11:43:00,63.9,58.3,29.93,WSW,238,6.0,8.0,82,0.00,,,0.03,199,Wunderground v.1.15,2013-05-08 16:43:00,
2013-05-08 11:49:00,63.8,58.5,29.93,SW,222,6.0,9.0,83,0.00,,,0.03,260,Wunderground v.1.15,2013-05-08 16:49:00,
2013-05-08 11:55:00,64.0,58.7,29.93,WSW,243,5.0,6.0,83,0.00,,,0.03,214,Wunderground v.1.15,2013-05-08 16:55:00,
2013-05-08 12:01:00,64.1,58.8,29.93,SW,219,5.0,6.0,83,0.00,,,0.03,223,Wunderground v.1.15,2013-05-08 17:01:00,
2013-05-08 12:06:00,64.3,59.0,29.93,SSW,198,5.0,10.0,83,0.00,,,0.03,350,Wunderground v.1.15,2013-05-08 17:06:00,
2013-05-08 12:11:00,64.6,58.3,29.93,SSW,196,5.0,7.0,80,0.00,,,0.03,318,Wunderground v.1.15,2013-05-08 17:11:00,
2013-05-08 12:17:00,64.8,58.5,29.93,SW,214,6.0,7.0,80,0.00,,,0.03,376,Wunderground v.1.15,2013-05-08 17:17:00,
2013-05-08 12:23:00,65.0,59.0,29.92,SW,225,5.0,6.0,81,0.00,,,0.03,334,Wunderground v.1.15,2013-05-08 17:23:00,
2013-05-08 12:29:00,65.3,59.0,29.92,SW,221,5.0,7.0,80,0.00,,,0.03,334,Wunderground v.1.15,2013-05-08 17:29:00,
2013-05-08 12:35:00,65.3,59.0,29.92,SW,227,5.0,8.0,80,0.00,,,0.03,392,Wunderground v.1.15,2013-05-08 17:35:00,
2013-05-08 12:41:00,65.6,59.3,29.92,SW,221,4.0,5.0,80,0.00,,,0.03,434,Wunderground v.1.15,2013-05-08 17:41:00,
2013-05-08 12:47:00,65.6,58.6,29.92,SW,224,4.0,5.0,78,0.00,,,0.03,397,Wunderground v.1.15,2013-05-08 17:47:00,
2013-05-08 12:53:00,65.4,58.7,29.92,SW,224,3.0,4.0,79,0.00,,,0.03,257,Wunderground v.1.15,2013-05-08 17:53:00,
2013-05-08 12:58:00,65.4,59.1,29.92,SW,224,3.0,4.0,80,0.00,,,0.03,292,Wunderground v.1.15,2013-05-08 17:58:00,
2013-05-08 13:04:00,65.6,59.6,29.92,SW,224,4.0,4.0,81,0.00,,,0.04,272,Wunderground v.1.15,2013-05-08 18:04:00,
2013-05-08 13:09:00,65.5,59.5,29.92,SW,223,3.0,4.0,81,0.00,,,0.04,346,Wunderground v.1.15,2013-05-08 18:09:00,
2013-05-08 13:14:00,65.6,59.6,29.92,SW,223,3.0,4.0,81,0.00,,,0.04,348,Wunderground v.1.15,2013-05-08 18:14:00,
2013-05-08 13:19:00,65.6,59.3,29.92,SSW,194,3.0,5.0,80,0.00,,,0.04,221,Wunderground v.1.15,2013-05-08 18:19:00,
2013-05-08 13:24:00,65.5,59.5,29.92,SSE,162,4.0,6.0,81,0.00,,,0.04,162,Wunderground v.1.15,2013-05-08 18:24:00,
2013-05-08 13:29:00,65.2,58.9,29.92,SSE,161,5.0,6.0,80,0.00,,,0.04,135,Wunderground v.1.15,2013-05-08 18:29:00,
2013-05-08 13:35:00,64.9,58.9,29.92,SSE,161,3.0,5.0,81,0.00,,,0.04,120,Wunderground v.1.15,2013-05-08 18:35:00,
2013-05-08 13:41:00,64.8,59.2,29.92,SSE,161,3.0,3.0,82,0.00,,,0.04,93,Wunderground v.1.15,2013-05-08 18:41:00,
2013-05-08 13:47:00,64.7,59.1,29.92,SSE,162,2.0,6.0,82,0.00,,,0.04,65,Wunderground v.1.15,2013-05-08 18:47:00,
2013-05-08 13:52:00,64.4,58.8,29.92,SSE,162,4.0,6.0,82,0.00,,,0.04,65,Wunderground v.1.15,2013-05-08 18:52:00,
2013-05-08 13:57:00,64.3,58.7,29.92,SSE,162,5.0,6.0,82,0.00,,,0.04,70,Wunderground v.1.15,2013-05-08 18:57:00,
2013-05-08 14:03:00,64.1,58.5,29.92,SSE,162,4.0,6.0,82,0.00,,,0.04,70,Wunderground v.1.15,2013-05-08 19:03:00,
2013-05-08 14:09:00,64.0,58.7,29.92,SSE,165,5.0,8.0,83,0.00,,,0.04,46,Wunderground v.1.15,2013-05-08 19:09:00,
2013-05-08 14:14:00,63.8,58.5,29.92,South,180,6.0,7.0,83,0.00,,,0.04,56,Wunderground v.1.15,2013-05-08 19:14:00,
2013-05-08 14:19:00,63.8,58.5,29.93,South,180,6.0,7.0,83,0.00,,,0.04,109,Wunderground v.1.15,2013-05-08 19:19:00,
2013-05-08 14:24:00,63.8,58.5,29.92,South,174,6.0,9.0,83,0.00,,,0.04,125,Wunderground v.1.15,2013-05-08 19:24:00,
2013-05-08 14:29:00,63.8,58.5,29.92,South,180,6.0,9.0,83,0.00,,,0.04,176,Wunderground v.1.15,2013-05-08 19:29:00,
2013-05-08 14:35:00,63.9,59.0,29.92,South,180,5.0,6.0,84,0.00,,,0.04,202,Wunderground v.1.15,2013-05-08 19:35:00,
2013-05-08 14:41:00,64.3,59.0,29.92,South,182,3.0,4.0,83,0.00,,,0.04,229,Wunderground v.1.15,2013-05-08 19:41:00,
2013-05-08 14:47:00,64.5,58.9,29.92,South,181,4.0,6.0,82,0.00,,,0.04,302,Wunderground v.1.15,2013-05-08 19:47:00,
2013-05-08 14:53:00,64.8,59.2,29.92,South,185,4.0,5.0,82,0.00,,,0.04,309,Wunderground v.1.15,2013-05-08 19:53:00,
2013-05-08 14:58:00,65.0,59.0,29.93,South,183,4.0,7.0,81,0.00,,,0.04,338,Wunderground v.1.15,2013-05-08 19:58:00,
2013-05-08 15:03:00,65.4,59.1,29.93,South,184,5.0,7.0,80,0.00,,,0.04,404,Wunderground v.1.15,2013-05-08 20:03:00,
2013-05-08 15:08:00,65.5,59.5,29.92,SSW,206,5.0,7.0,81,0.00,,,0.04,469,Wunderground v.1.15,2013-05-08 20:08:00,
2013-05-08 15:14:00,66.0,59.3,29.92,SSW,206,4.0,5.0,79,0.00,,,0.04,427,Wunderground v.1.15,2013-05-08 20:14:00,
2013-05-08 15:19:00,66.2,59.5,29.92,SSW,206,3.0,5.0,79,0.00,,,0.04,374,Wunderground v.1.15,2013-05-08 20:19:00,
2013-05-08 15:25:00,66.5,59.4,29.92,SSW,206,3.0,4.0,78,0.00,,,0.04,378,Wunderground v.1.15,2013-05-08 20:25:00,
2013-05-08 15:31:00,66.6,59.9,29.92,SSW,206,2.0,2.0,79,0.00,,,0.04,424,Wunderground v.1.15,2013-05-08 20:31:00,
2013-05-08 15:37:00,66.3,59.6,29.91,SSW,206,1.0,3.0,79,0.00,,,0.04,334,Wunderground v.1.15,2013-05-08 20:37:00,
2013-05-08 15:43:00,66.4,59.7,29.91,SSW,206,1.0,2.0,79,0.00,,,0.04,306,Wunderground v.1.15,2013-05-08 20:43:00,
2013-05-08 15:49:00,66.2,59.1,29.90,SSW,206,1.0,3.0,78,0.00,,,0.04,304,Wunderground v.1.15,2013-05-08 20:49:00,
2013-05-08 15:55:00,66.5,60.5,29.90,SSW,207,1.0,5.0,81,0.00,,,0.04,476,Wunderground v.1.15,2013-05-08 20:55:00,
2013-05-08 16:00:00,66.6,60.2,29.90,West,273,2.0,4.0,80,0.00,,,0.04,339,Wunderground v.1.15,2013-05-08 21:00:00,
2013-05-08 16:06:00,66.5,59.8,29.89,West,274,3.0,6.0,79,0.00,,,0.04,318,Wunderground v.1.15,2013-05-08 21:06:00,
2013-05-08 16:12:00,66.7,60.3,29.89,West,274,2.0,2.0,80,0.00,,,0.04,250,Wunderground v.1.15,2013-05-08 21:12:00,
2013-05-08 16:17:00,66.7,58.9,29.89,West,274,1.0,2.0,76,0.00,,,0.04,211,Wunderground v.1.15,2013-05-08 21:17:00,
2013-05-08 16:22:00,66.6,58.8,29.89,West,274,1.0,2.0,76,0.00,,,0.04,179,Wunderground v.1.15,2013-05-08 21:22:00,
2013-05-08 16:27:00,66.5,59.4,29.89,West,274,2.0,3.0,78,0.00,,,0.04,183,Wunderground v.1.15,2013-05-08 21:27:00,
2013-05-08 16:33:00,66.5,59.4,29.89,West,274,2.0,3.0,78,0.00,,,0.04,209,Wunderground v.1.15,2013-05-08 21:33:00,
2013-05-08 16:39:00,66.7,59.6,29.88,West,274,1.0,3.0,78,0.00,,,0.04,225,Wunderground v.1.15,2013-05-08 21:39:00,
2013-05-08 16:45:00,66.9,59.8,29.88,West,274,1.0,2.0,78,0.00,,,0.04,163,Wunderground v.1.15,2013-05-08 21:45:00,
2013-05-08 16:51:00,66.9,59.1,29.89,West,274,1.0,1.0,76,0.00,,,0.04,130,Wunderground v.1.15,2013-05-08 21:51:00,
2013-05-08 16:57:00,66.7,59.6,29.89,West,274,1.0,2.0,78,0.00,,,0.04,118,Wunderground v.1.15,2013-05-08 21:57:00,
2013-05-08 17:02:00,66.6,59.2,29.88,West,277,1.0,4.0,77,0.00,,,0.04,109,Wunderground v.1.15,2013-05-08 22:02:00,
2013-05-08 17:07:00,66.5,59.1,29.88,West,277,2.0,4.0,77,0.00,,,0.04,151,Wunderground v.1.15,2013-05-08 22:07:00,
2013-05-08 17:12:00,66.5,59.1,29.88,WNW,285,3.0,4.0,77,0.00,,,0.04,148,Wunderground v.1.15,2013-05-08 22:12:00,
2013-05-08 17:17:00,66.6,59.5,29.88,WNW,285,2.0,4.0,78,0.00,,,0.04,160,Wunderground v.1.15,2013-05-08 22:17:00,
2013-05-08 17:22:00,66.7,58.9,29.88,NNW,339,2.0,4.0,76,0.00,,,0.04,223,Wunderground v.1.15,2013-05-08 22:22:00,
2013-05-08 17:27:00,66.9,59.1,29.88,NNW,339,2.0,4.0,76,0.00,,,0.04,236,Wunderground v.1.15,2013-05-08 22:27:00,
2013-05-08 17:32:00,67.1,59.6,29.88,NNW,339,2.0,2.0,77,0.00,,,0.04,199,Wunderground v.1.15,2013-05-08 22:32:00,
2013-05-08 17:38:00,67.3,59.5,29.88,NNW,339,2.0,6.0,76,0.00,,,0.04,211,Wunderground v.1.15,2013-05-08 22:38:00,
2013-05-08 17:43:00,67.2,60.1,29.88,North,349,4.0,6.0,78,0.00,,,0.04,193,Wunderground v.1.15,2013-05-08 22:43:00,
2013-05-08 17:49:00,67.1,59.3,29.88,North,349,3.0,6.0,76,0.00,,,0.04,197,Wunderground v.1.15,2013-05-08 22:49:00,
2013-05-08 17:54:00,67.1,59.3,29.88,North,349,2.0,4.0,76,0.00,,,0.04,174,Wunderground v.1.15,2013-05-08 22:54:00,
2013-05-08 17:59:00,67.1,59.3,29.88,North,349,2.0,4.0,76,0.00,,,0.04,179,Wunderground v.1.15,2013-05-08 22:59:00,
2013-05-08 18:05:00,67.0,59.2,29.88,North,349,3.0,4.0,76,0.00,,,0.04,149,Wunderground v.1.15,2013-05-08 23:05:00,
2013-05-08 18:10:00,67.0,58.8,29.88,North,349,3.0,3.0,75,0.00,,,0.04,144,Wunderground v.1.15,2013-05-08 23:10:00,
2013-05-08 18:15:00,67.0,59.2,29.87,North,360,3.0,5.0,76,0.00,,,0.04,118,Wunderground v.1.15,2013-05-08 23:15:00,
2013-05-08 18:20:00,66.9,59.1,29.87,North,360,4.0,4.0,76,0.00,,,0.04,125,Wunderground v.1.15,2013-05-08 23:20:00,
2013-05-08 18:25:00,66.8,59.0,29.87,North,5,4.0,5.0,76,0.00,,,0.04,118,Wunderground v.1.15,2013-05-08 23:25:00,
2013-05-08 18:31:00,66.7,58.9,29.87,NNE,28,4.0,7.0,76,0.00,,,0.04,90,Wunderground v.1.15,2013-05-08 23:31:00,
2013-05-08 18:37:00,66.7,59.3,29.87,NE,37,5.0,7.0,77,0.00,,,0.04,114,Wunderground v.1.15,2013-05-08 23:37:00,
2013-05-08 18:42:00,66.7,59.3,29.87,NE,37,4.0,5.0,77,0.00,,,0.04,90,Wunderground v.1.15,2013-05-08 23:42:00,
2013-05-08 18:47:00,66.6,58.8,29.87,NE,37,4.0,7.0,76,0.00,,,0.04,93,Wunderground v.1.15,2013-05-08 23:47:00,
2013-05-08 18:52:00,66.6,59.2,29.87,NE,38,4.0,5.0,77,0.00,,,0.04,70,Wunderground v.1.15,2013-05-08 23:52:00,
2013-05-08 18:57:00,66.5,59.1,29.87,NE,40,4.0,6.0,77,0.00,,,0.04,26,Wunderground v.1.15,2013-05-08 23:57:00,
2013-05-08 19:03:00,66.3,58.9,29.87,NE,40,4.0,4.0,77,0.00,,,0.04,26,Wunderground v.1.15,2013-05-09 00:03:00,
2013-05-08 19:09:00,66.2,58.8,29.87,NE,40,4.0,5.0,77,0.00,,,0.04,23,Wunderground v.1.15,2013-05-09 00:09:00,
2013-05-08 19:15:00,66.1,59.0,29.87,NE,38,3.0,4.0,78,0.00,,,0.04,16,Wunderground v.1.15,2013-05-09 00:15:00,
2013-05-08 19:21:00,65.9,58.5,29.87,NE,38,3.0,3.0,77,0.00,,,0.04,25,Wunderground v.1.15,2013-05-09 00:21:00,
2013-05-08 19:27:00,65.9,58.5,29.87,NE,43,3.0,7.0,77,0.00,,,0.04,32,Wunderground v.1.15,2013-05-09 00:27:00,
2013-05-08 19:32:00,65.8,58.4,29.87,ENE,57,4.0,4.0,77,0.00,,,0.04,33,Wunderground v.1.15,2013-05-09 00:32:00,
2013-05-08 19:37:00,65.7,58.7,29.87,NE,56,4.0,6.0,78,0.00,,,0.04,49,Wunderground v.1.15,2013-05-09 00:37:00,
2013-05-08 19:42:00,65.6,58.6,29.87,NE,53,4.0,6.0,78,0.00,,,0.04,40,Wunderground v.1.15,2013-05-09 00:42:00,
2013-05-08 19:47:00,65.5,58.5,29.87,NE,46,4.0,6.0,78,0.00,,,0.04,35,Wunderground v.1.15,2013-05-09 00:47:00,
2013-05-08 19:52:00,65.3,58.6,29.87,NE,39,4.0,4.0,79,0.00,,,0.04,39,Wunderground v.1.15,2013-05-09 00:52:00,
2013-05-08 19:57:00,65.2,58.5,29.86,NE,45,5.0,9.0,79,0.00,,,0.04,28,Wunderground v.1.15,2013-05-09 00:57:00,
2013-05-08 20:03:00,65.0,58.3,29.86,NE,45,4.0,5.0,79,0.00,,,0.04,19,Wunderground v.1.15,2013-05-09 01:03:00,
2013-05-08 20:09:00,64.6,58.3,29.86,NE,45,3.0,5.0,80,0.00,,,0.04,16,Wunderground v.1.15,2013-05-09 01:09:00,
2013-05-08 20:15:00,64.4,58.1,29.86,NE,55,4.0,7.0,80,0.00,,,0.04,11,Wunderground v.1.15,2013-05-09 01:15:00,
2013-05-08 20:21:00,64.1,58.1,29.86,NE,51,5.0,7.0,81,0.00,,,0.04,7,Wunderground v.1.15,2013-05-09 01:21:00,
2013-05-08 20:27:00,63.8,57.9,29.87,NE,53,4.0,7.0,81,0.00,,,0.04,0,Wunderground v.1.15,2013-05-09 01:27:00,
2013-05-08 20:32:00,63.7,58.1,29.87,NE,53,4.0,5.0,82,0.00,,,0.04,0,Wunderground v.1.15,2013-05-09 01:32:00,
2013-05-08 20:37:00,63.7,58.1,29.87,NE,53,4.0,5.0,82,0.00,,,0.04,0,Wunderground v.1.15,2013-05-09 01:37:00,
2013-05-08 20:42:00,63.7,58.1,29.87,NE,53,4.0,5.0,82,0.00,,,0.04,0,Wunderground v.1.15,2013-05-09 01:42:00,
2013-05-08 20:47:00,63.7,58.1,29.87,NE,53,4.0,6.0,82,0.00,,,0.04,0,Wunderground v.1.15,2013-05-09 01:47:00,
2013-05-08 20:52:00,63.5,57.9,29.87,NE,51,4.0,4.0,82,0.00,,,0.04,0,Wunderground v.1.15,2013-05-09 01:52:00,
2013-05-08 20:58:00,63.5,57.9,29.87,NE,54,4.0,7.0,82,0.00,,,0.04,0,Wunderground v.1.15,2013-05-09 01:58:00,
2013-05-08 21:04:00,63.6,58.0,29.87,NE,53,4.0,4.0,82,0.00,,,0.04,0,Wunderground v.1.15,2013-05-09 02:04:00,
2013-05-08 21:09:00,63.4,58.1,29.87,NE,53,3.0,4.0,83,0.00,,,0.04,0,Wunderground v.1.15,2013-05-09 02:09:00,
2013-05-08 21:14:00,63.2,58.3,29.87,NE,53,3.0,4.0,84,0.00,,,0.04,0,Wunderground v.1.15,2013-05-09 02:14:00,
2013-05-08 21:19:00,62.9,58.3,29.86,NE,50,3.0,6.0,85,0.00,,,0.04,0,Wunderground v.1.15,2013-05-09 02:19:00,
2013-05-08 21:25:00,62.7,58.5,29.86,NE,49,4.0,6.0,86,0.00,,,0.04,0,Wunderground v.1.15,2013-05-09 02:25:00,
2013-05-08 21:31:00,62.5,58.3,29.86,NE,49,4.0,4.0,86,0.00,,,0.04,0,Wunderground v.1.15,2013-05-09 02:31:00,
2013-05-08 21:37:00,62.2,58.0,29.86,NE,49,3.0,4.0,86,0.00,,,0.04,0,Wunderground v.1.15,2013-05-09 02:37:00,
2013-05-08 21:43:00,62.2,58.3,29.85,NE,49,4.0,5.0,87,0.00,,,0.04,0,Wunderground v.1.15,2013-05-09 02:43:00,
2013-05-08 21:49:00,62.1,58.2,29.86,NE,50,4.0,7.0,87,0.00,,,0.04,0,Wunderground v.1.15,2013-05-09 02:49:00,
2013-05-08 21:55:00,62.2,58.0,29.86,NE,49,4.0,5.0,86,0.00,,,0.04,0,Wunderground v.1.15,2013-05-09 02:55:00,
2013-05-08 22:01:00,62.1,57.9,29.87,NE,49,3.0,4.0,86,0.00,,,0.04,0,Wunderground v.1.15,2013-05-09 03:01:00,
2013-05-08 22:07:00,61.9,58.0,29.87,NE,49,3.0,4.0,87,0.00,,,0.04,0,Wunderground v.1.15,2013-05-09 03:07:00,
2013-05-08 22:13:00,61.8,57.9,29.88,NE,49,3.0,4.0,87,0.00,,,0.04,0,Wunderground v.1.15,2013-05-09 03:13:00,
2013-05-08 22:18:00,61.9,58.3,29.88,NE,45,4.0,7.0,88,0.00,,,0.04,0,Wunderground v.1.15,2013-05-09 03:18:00,
2013-05-08 22:23:00,61.7,58.1,29.87,NNE,33,4.0,6.0,88,0.00,,,0.04,0,Wunderground v.1.15,2013-05-09 03:23:00,
2013-05-08 22:28:00,61.5,58.2,29.87,NNE,33,5.0,6.0,89,0.00,,,0.04,0,Wunderground v.1.15,2013-05-09 03:28:00,
2013-05-08 22:33:00,61.5,58.2,29.87,NNE,33,4.0,6.0,89,0.00,,,0.04,0,Wunderground v.1.15,2013-05-09 03:33:00,
2013-05-08 22:38:00,61.4,58.1,29.87,NNE,31,5.0,9.0,89,0.00,,,0.04,0,Wunderground v.1.15,2013-05-09 03:38:00,
2013-05-08 22:44:00,61.3,58.0,29.88,NNE,30,5.0,6.0,89,0.00,,,0.04,0,Wunderground v.1.15,2013-05-09 03:44:00,
2013-05-08 22:49:00,61.1,58.1,29.87,NNE,30,5.0,6.0,90,0.00,,,0.04,0,Wunderground v.1.15,2013-05-09 03:49:00,
2013-05-08 22:55:00,60.9,57.9,29.87,NNE,30,4.0,6.0,90,0.00,,,0.04,0,Wunderground v.1.15,2013-05-09 03:55:00,
2013-05-08 23:01:00,60.9,57.9,29.86,NNE,30,4.0,4.0,90,0.00,,,0.04,0,Wunderground v.1.15,2013-05-09 04:01:00,
2013-05-08 23:02:00,60.9,57.9,29.86,NNE,30,4.0,8.0,90,0.00,,,0.04,0,Wunderground v.1.15,2013-05-09 04:02:00,
2013-05-08 23:07:00,60.8,57.8,29.86,NNE,31,4.0,8.0,90,0.00,,,0.04,0,Wunderground v.1.15,2013-05-09 04:07:00,
2013-05-08 23:13:00,60.7,57.7,29.86,NE,34,5.0,9.0,90,0.00,,,0.04,0,Wunderground v.1.15,2013-05-09 04:13:00,
2013-05-08 23:14:00,60.7,57.7,29.86,NNE,31,5.0,9.0,90,0.00,,,0.04,0,Wunderground v.1.15,2013-05-09 04:14:00,
2013-05-08 23:18:00,60.8,57.8,29.86,NE,41,5.0,9.0,90,0.00,,,0.04,0,Wunderground v.1.15,2013-05-09 04:18:00,
2013-05-08 23:23:00,60.8,57.8,29.86,NE,45,6.0,6.0,90,0.00,,,0.04,0,Wunderground v.1.15,2013-05-09 04:23:00,
2013-05-08 23:28:00,60.9,57.9,29.86,NE,49,5.0,9.0,90,0.00,,,0.04,0,Wunderground v.1.15,2013-05-09 04:28:00,
2013-05-08 23:34:00,61.2,58.2,29.86,ENE,59,6.0,7.0,90,0.00,,,0.04,0,Wunderground v.1.15,2013-05-09 04:34:00,
2013-05-08 23:39:00,61.3,58.0,29.86,NE,49,6.0,9.0,89,0.00,,,0.04,0,Wunderground v.1.15,2013-05-09 04:39:00,
2013-05-08 23:44:00,61.5,57.9,29.86,ENE,61,5.0,9.0,88,0.00,,,0.04,0,Wunderground v.1.15,2013-05-09 04:44:00,
2013-05-08 23:50:00,61.6,58.0,29.87,ENE,61,5.0,5.0,88,0.00,,,0.04,0,Wunderground v.1.15,2013-05-09 04:50:00,
2013-05-08 23:55:00,61.7,58.1,29.86,NE,55,4.0,5.0,88,0.00,,,0.04,0,Wunderground v.1.15,2013-05-09 04:55:00,